Hourly Weather Cham

Today, 12 June, Saturday

Time Temperature Precipitation Wind Pressure Humidity
00:00 +18°C° 0 mm 1 mps 727 mmHg 82%
01:00 +16°C° 0 mm 1 mps 727 mmHg 83%
02:00 +16°C° 0 mm 1 mps 727 mmHg 83%
03:00 +15°C° 0 mm 1 mps 727 mmHg 82%
04:00 +15°C° 0 mm 1 mps 727 mmHg 82%
05:00 +16°C° 0 mm 1 mps 727 mmHg 79%
06:00 +19°C° 0 mm 1 mps 728 mmHg 75%
07:00 +18°C° 0 mm 0 mps 728 mmHg 71%
08:00 +22°C° 0 mm 1 mps 728 mmHg 64%
09:00 +24°C° 0 mm 1 mps 728 mmHg 57%
10:00 +26°C° 0 mm 1 mps 728 mmHg 51%
11:00 +27°C° 0 mm 1 mps 728 mmHg 48%
12:00 +28°C° 0 mm 2 mps 728 mmHg 45%
13:00 +29°C° 0 mm 2 mps 728 mmHg 42%
14:00 +28°C° 0 mm 2 mps 728 mmHg 47%
15:00 +27°C° 0 mm 2 mps 728 mmHg 52%
16:00 +27°C° 0 mm 3 mps 728 mmHg 57%
17:00 +25°C° 0.3 mm 2 mps 728 mmHg 65%
18:00 +24°C° 0.3 mm 2 mps 729 mmHg 74%
19:00 +23°C° 0.3 mm 1 mps 729 mmHg 82%
20:00 +21°C° 0.1 mm 1 mps 729 mmHg 86%
21:00 +20°C° 0.1 mm 1 mps 730 mmHg 89%
22:00 +19°C° 0.1 mm 1 mps 730 mmHg 93%
23:00 +16°C° 0 mm 0 mps 730 mmHg 93%

Tomorrow, 13 June, Sunday

Time Temperature Precipitation Wind Pressure Humidity
00:00 +16°C° 0 mm 0 mps 730 mmHg 94%
01:00 +16°C° 0 mm 0 mps 730 mmHg 94%
02:00 +16°C° 0 mm 0 mps 730 mmHg 95%
03:00 +16°C° 0 mm 0 mps 730 mmHg 95%
04:00 +16°C° 0 mm 0 mps 730 mmHg 96%
05:00 +17°C° 0 mm 0 mps 730 mmHg 94%
06:00 +19°C° 0 mm 1 mps 730 mmHg 92%
07:00 +20°C° 0 mm 1 mps 730 mmHg 90%
08:00 +21°C° 0 mm 1 mps 730 mmHg 83%
09:00 +21°C° 0 mm 2 mps 730 mmHg 76%
10:00 +23°C° 0 mm 2 mps 730 mmHg 69%
11:00 +24°C° 0 mm 2 mps 730 mmHg 64%
12:00 +25°C° 0 mm 2 mps 730 mmHg 59%
13:00 +26°C° 0 mm 2 mps 730 mmHg 54%
14:00 +26°C° 0 mm 3 mps 730 mmHg 54%
15:00 +27°C° 0 mm 3 mps 730 mmHg 53%
16:00 +27°C° 0 mm 3 mps 730 mmHg 52%
17:00 +25°C° 0 mm 3 mps 730 mmHg 59%
18:00 +24°C° 0 mm 3 mps 730 mmHg 65%
19:00 +22°C° 0 mm 3 mps 730 mmHg 71%
20:00 +20°C° 0 mm 2 mps 730 mmHg 77%
21:00 +18°C° 0 mm 2 mps 730 mmHg 83%
22:00 +16°C° 0 mm 1 mps 730 mmHg 88%
23:00 +15°C° 0 mm 1 mps 729 mmHg 90%

Day after tomorrow, 14 June, Monday

Time Temperature Precipitation Wind Pressure Humidity
00:00 +15°C° 0 mm 1 mps 729 mmHg 92%
01:00 +14°C° 0 mm 1 mps 729 mmHg 93%
02:00 +14°C° 0 mm 1 mps 729 mmHg 93%
03:00 +13°C° 0 mm 1 mps 728 mmHg 93%
04:00 +13°C° 0 mm 1 mps 728 mmHg 93%
05:00 +14°C° 0 mm 1 mps 728 mmHg 89%
06:00 +15°C° 0 mm 1 mps 729 mmHg 84%
07:00 +16°C° 0 mm 1 mps 729 mmHg 80%
08:00 +19°C° 0 mm 1 mps 729 mmHg 73%
09:00 +22°C° 0 mm 1 mps 728 mmHg 67%
10:00 +24°C° 0 mm 2 mps 728 mmHg 60%
11:00 +25°C° 0 mm 2 mps 728 mmHg 56%
12:00 +26°C° 0 mm 2 mps 728 mmHg 52%
13:00 +28°C° 0 mm 2 mps 728 mmHg 48%
14:00 +28°C° 0 mm 2 mps 727 mmHg 48%
15:00 +28°C° 0 mm 2 mps 727 mmHg 48%
16:00 +28°C° 0 mm 2 mps 727 mmHg 47%
17:00 +27°C° 0 mm 2 mps 727 mmHg 56%
18:00 +25°C° 0 mm 2 mps 727 mmHg 65%
19:00 +24°C° 0 mm 1 mps 727 mmHg 74%
20:00 +22°C° 0 mm 1 mps 727 mmHg 80%
21:00 +20°C° 0 mm 1 mps 727 mmHg 86%
22:00 +18°C° 0 mm 1 mps 727 mmHg 92%
23:00 +18°C° 0 mm 1 mps 727 mmHg 93%

15 June, Tuesday

Time Temperature Precipitation Wind Pressure Humidity
00:00 +16°C° 0 mm 1 mps 727 mmHg 93%
01:00 +16°C° 0 mm 1 mps 727 mmHg 94%
02:00 +15°C° 0 mm 0 mps 727 mmHg 94%
03:00 +14°C° 0 mm 0 mps 727 mmHg 94%
04:00 +14°C° 0 mm 0 mps 727 mmHg 94%
05:00 +15°C° 0 mm 0 mps 727 mmHg 90%
06:00 +17°C° 0 mm 0 mps 727 mmHg 86%
07:00 +18°C° 0 mm 0 mps 727 mmHg 83%
08:00 +22°C° 0 mm 1 mps 727 mmHg 75%
09:00 +24°C° 0 mm 1 mps 727 mmHg 67%
10:00 +26°C° 0 mm 1 mps 727 mmHg 59%
11:00 +27°C° 0 mm 2 mps 727 mmHg 54%
12:00 +28°C° 0 mm 2 mps 727 mmHg 50%
13:00 +29°C° 0 mm 2 mps 727 mmHg 45%
14:00 +29°C° 0 mm 2 mps 726 mmHg 44%
15:00 +29°C° 0 mm 2 mps 726 mmHg 44%
16:00 +29°C° 0 mm 2 mps 726 mmHg 43%
17:00 +28°C° 0 mm 1 mps 726 mmHg 52%
18:00 +27°C° 0 mm 1 mps 726 mmHg 62%
19:00 +25°C° 0 mm 1 mps 726 mmHg 71%
20:00 +24°C° 0 mm 1 mps 726 mmHg 75%
21:00 +22°C° 0 mm 1 mps 726 mmHg 80%
22:00 +20°C° 0 mm 1 mps 726 mmHg 84%
23:00 +20°C° 0 mm 1 mps 726 mmHg 85%

16 June, Wednesday

Time Temperature Precipitation Wind Pressure Humidity
00:00 +19°C° 0 mm 1 mps 726 mmHg 86%
01:00 +19°C° 0 mm 1 mps 726 mmHg 86%
02:00 +19°C° 0 mm 1 mps 726 mmHg 87%
03:00 +18°C° 0 mm 1 mps 725 mmHg 88%
04:00 +18°C° 0 mm 1 mps 725 mmHg 89%
05:00 +19°C° 0 mm 1 mps 725 mmHg 84%
06:00 +19°C° 0 mm 0 mps 726 mmHg 80%
07:00 +20°C° 0 mm 0 mps 726 mmHg 75%
08:00 +22°C° 0 mm 0 mps 726 mmHg 69%
09:00 +26°C° 0 mm 1 mps 726 mmHg 62%
10:00 +28°C° 0 mm 1 mps 726 mmHg 55%
11:00 +29°C° 0 mm 1 mps 725 mmHg 51%
12:00 +31°C° 0 mm 1 mps 725 mmHg 46%
13:00 +32°C° 0 mm 1 mps 725 mmHg 42%
14:00 +32°C° 0.1 mm 1 mps 725 mmHg 42%
15:00 +32°C° 0.1 mm 1 mps 725 mmHg 41%
16:00 +32°C° 0.1 mm 1 mps 724 mmHg 41%
17:00 +30°C° 0.1 mm 1 mps 724 mmHg 50%
18:00 +29°C° 0.1 mm 1 mps 724 mmHg 59%
19:00 +28°C° 0.1 mm 1 mps 724 mmHg 67%
20:00 +26°C° 0 mm 1 mps 724 mmHg 70%
21:00 +24°C° 0 mm 2 mps 724 mmHg 72%
22:00 +21°C° 0 mm 2 mps 724 mmHg 75%
23:00 +21°C° 0 mm 2 mps 724 mmHg 76%

17 June, Thursday

Time Temperature Precipitation Wind Pressure Humidity
00:00 +20°C° 0 mm 2 mps 724 mmHg 78%
01:00 +20°C° 0 mm 2 mps 724 mmHg 80%
02:00 +19°C° 0 mm 2 mps 724 mmHg 81%
03:00 +19°C° 0 mm 2 mps 724 mmHg 82%
04:00 +19°C° 0 mm 2 mps 724 mmHg 82%
05:00 +21°C° 0 mm 1 mps 724 mmHg 79%
06:00 +22°C° 0 mm 1 mps 724 mmHg 76%
07:00 +24°C° 0 mm 1 mps 725 mmHg 73%
08:00 +25°C° 0 mm 1 mps 725 mmHg 68%
09:00 +27°C° 0 mm 1 mps 725 mmHg 62%
10:00 +29°C° 0 mm 1 mps 725 mmHg 57%
11:00 +30°C° 0.1 mm 1 mps 725 mmHg 53%
12:00 +31°C° 0.1 mm 1 mps 725 mmHg 49%
13:00 +32°C° 0.1 mm 1 mps 724 mmHg 46%
14:00 +33°C° 0 mm 1 mps 724 mmHg 45%
15:00 +34°C° 0 mm 2 mps 724 mmHg 44%
16:00 +34°C° 0 mm 2 mps 723 mmHg 43%
17:00 +31°C° 0 mm 2 mps 723 mmHg 52%
18:00 +30°C° 0 mm 2 mps 723 mmHg 61%
19:00 +28°C° 0 mm 1 mps 722 mmHg 70%
20:00 +26°C° 0 mm 2 mps 722 mmHg 73%
21:00 +25°C° 0 mm 2 mps 723 mmHg 76%
22:00 +23°C° 0 mm 2 mps 723 mmHg 79%
23:00 +23°C° 0 mm 2 mps 723 mmHg 79%
Show more

We Need Your Consent

Meteoprog and our Service Providers may store and access personal data such as cookies, device identifiers or other similar technologies on your device and process such data to personalise content and ads, as well as provide social media features and to analyse the traffic.

  • Store and/or access information on your device

    Cookies, device identifiers or other information can be stored or accessed on your device for the purposes indicated above.

  • Personalised ads and content, ad and content measurement, audience insights, and products development

    Ads and content can be personalised based on a profile. More data can be added to better personalise ads and content. Ad and content performance can be measured. Insights about the audience who saw the ads and content can be derived. Such data can be used to develop or improve user’s experience, systems and software.

By clicking ‘I Agree’ you will allow the use of indicated cookies, device identifiers, web beacons or other similar technologies. Your settings can be changed in the browser on your device.

For certain purposes, legitimate interests may be relied on, rather than consent. You can read more about this in our Privacy and Cookie Policy.